Tracking 19170 objects as of 22-May-2018
HD Live streaming from Space Station
objects crossing your sky now

OBJECT AB

Track OBJECT AB now!
10-day predictions


NORAD ID: 43136
Int'l Code: 2018-004AB
Perigee: 498.2 km
Apogee: 511.4 km
Inclination: 97.5 °
Period: 94.6 minutes
Semi major axis: 6875 km
RCS: Unknown
Launch date: January 12, 2018
Source: (TBD)
Launch site: SRIHARIKOTA (SRI)
aabbcc
Your satellite tracking list
Your tracking list is empty




NASA's NSSDC Master Catalog

Two Line Element Set (TLE):
1 43136U 18004AB  18141.68143614  .00001387  00000-0  62553-4 0  9992
2 43136  97.5358 204.3069 0009596 183.1094 177.0084 15.22714107 19675
Source of the keplerian elements: AFSPC